Weather History for Litchfield, MN

Change the Weather History Date:

Sunday, July 28, 2013

  Actual Average Record
Temperature  
Mean Temperature 62 °F -  
Max Temperature 73 °F 83 °F 98 °F (1988)
Min Temperature 50 °F 59 °F 48 °F (1981)
Degree Days  
Heating Degree Days 4    
Growing Degree Days 12 (Base 50)    
Moisture  
Dew Point 50 °F    
Average Humidity 69    
Maximum Humidity 94    
Minimum Humidity 41    
Precipitation  
Precipitation 0.00 in - - ()
Sea Level Pressure  
Sea Level Pressure 30.03 in    
Wind  
Wind Speed 5 mph (NNW)    
Max Wind Speed 13 mph    
Max Gust Speed 18 mph    
Visibility 10 miles    
Events      
Averages and records for this station are not official NWS values.
T = Trace of Precipitation, MM = Missing Value Source: NWS Daily Summary

Daily Weather History Graph

Daily Weather History Graph

Search for Another Location

Airport:

Trip Planner

Search our weather history database for the weather conditions in past years. The results will help you decide how hot, cold, wet, or windy it might be!

Date:

Astronomy

Jul. 28, 2013 Rise Set
Actual Time 5:58 AM CDT 8:49 PM CDT
Civil Twilight 5:24 AM CDT 9:23 PM CDT
Nautical Twilight 4:40 AM CDT 10:07 PM CDT
Astronomical Twilight 3:49 AM CDT 10:57 PM CDT
Moon 11:49 PM CDT (7/28) 1:03 PM CDT (7/28)
Length of Visible Light 15h 59m
Length of Day
14h 50m
Waning Gibbous, 60% of the Moon is Illuminated
Jul 28
Waning Gibbous
Jul 29
Last Quarter
Aug 6
New
Aug 14
First Quarter
Aug 20
Full

Hourly Weather History & Observations

Time (CDT) Temp. Dew Point Humidity Pressure Visibility Wind Dir Wind Speed Gust Speed Precip Events Conditions
12:13 AM 53.6 °F 44.6 °F 72% 30.02 in 10.0 mi North 6.9 mph - N/A   Clear
12:33 AM 53.6 °F 44.6 °F 72% 30.02 in 10.0 mi NNW 4.6 mph - N/A   Clear
12:52 AM 51.8 °F 46.4 °F 82% 30.01 in 10.0 mi Calm Calm - N/A   Clear
1:13 AM 51.8 °F 46.4 °F 82% 30.01 in 10.0 mi NW 3.5 mph - N/A   Scattered Clouds
1:33 AM 51.8 °F 46.4 °F 82% 30.01 in 10.0 mi WNW 3.5 mph - N/A   Scattered Clouds
1:52 AM 51.8 °F 46.4 °F 82% 30.02 in 10.0 mi NNW 4.6 mph - N/A   Scattered Clouds
2:13 AM 50.0 °F 46.4 °F 87% 30.02 in 10.0 mi NNW 4.6 mph - N/A   Scattered Clouds
2:33 AM 51.8 °F 46.4 °F 82% 30.02 in 10.0 mi NW 4.6 mph - N/A   Clear
2:52 AM 50.0 °F 46.4 °F 87% 30.01 in 10.0 mi North 6.9 mph - N/A   Clear
3:13 AM 51.8 °F 46.4 °F 82% 30.01 in 10.0 mi North 5.8 mph - N/A   Scattered Clouds
3:33 AM 50.0 °F 46.4 °F 87% 30.01 in 10.0 mi NW 4.6 mph - N/A   Scattered Clouds
3:52 AM 51.8 °F 46.4 °F 82% 30.01 in 10.0 mi NW 4.6 mph - N/A   Mostly Cloudy
4:13 AM 51.8 °F 48.2 °F 88% 30.01 in 10.0 mi NNW 4.6 mph - N/A   Overcast
4:33 AM 51.8 °F 48.2 °F 88% 30.01 in 10.0 mi NW 5.8 mph - N/A   Overcast
4:52 AM 51.8 °F 48.2 °F 88% 30.01 in 10.0 mi NW 4.6 mph - N/A   Overcast
5:13 AM 53.6 °F 48.2 °F 82% 30.01 in 10.0 mi NW 4.6 mph - N/A   Overcast
5:33 AM 51.8 °F 48.2 °F 88% 30.01 in 10.0 mi NNW 4.6 mph - N/A   Overcast
5:52 AM 51.8 °F 48.2 °F 88% 30.01 in 10.0 mi WNW 3.5 mph - N/A   Overcast
6:13 AM 51.8 °F 48.2 °F 88% 30.02 in 10.0 mi NW 4.6 mph - N/A   Overcast
6:33 AM 51.8 °F 48.2 °F 88% 30.02 in 10.0 mi NW 4.6 mph - N/A   Overcast
6:52 AM 51.8 °F 48.2 °F 88% 30.02 in 10.0 mi WNW 6.9 mph - N/A   Overcast
7:13 AM 51.8 °F 48.2 °F 88% 30.03 in 10.0 mi NW 5.8 mph - N/A   Overcast
7:33 AM 53.6 °F 48.2 °F 82% 30.03 in 10.0 mi WNW 5.8 mph - N/A   Overcast
7:53 AM 53.6 °F 48.2 °F 82% 30.03 in 10.0 mi NW 5.8 mph - N/A   Overcast
8:13 AM 55.4 °F 48.2 °F 77% 30.03 in 10.0 mi NNW 5.8 mph - N/A   Overcast
8:32 AM 55.4 °F 48.2 °F 77% 30.03 in 10.0 mi NW 8.1 mph - N/A   Overcast
8:53 AM 57.2 °F 50.0 °F 77% 30.02 in 10.0 mi NNW 10.4 mph - N/A   Mostly Cloudy
9:13 AM 57.2 °F 48.2 °F 72% 30.02 in 10.0 mi North 10.4 mph 18.4 mph N/A   Scattered Clouds
9:32 AM 57.2 °F 48.2 °F 72% 30.02 in 10.0 mi NNW 8.1 mph - N/A   Scattered Clouds
9:53 AM 59.0 °F 50.0 °F 72% 30.03 in 10.0 mi North 4.6 mph - N/A   Clear
10:13 AM 60.8 °F 50.0 °F 68% 30.02 in 10.0 mi North 5.8 mph - N/A   Scattered Clouds
10:32 AM 62.6 °F 50.0 °F 63% 30.02 in 10.0 mi North 8.1 mph - N/A   Clear
10:53 AM 62.6 °F 50.0 °F 63% 30.02 in 10.0 mi North 8.1 mph - N/A   Clear
11:13 AM 64.4 °F 51.8 °F 64% 30.03 in 10.0 mi North 8.1 mph - N/A   Clear
11:32 AM 64.4 °F 51.8 °F 64% 30.03 in 10.0 mi North 10.4 mph - N/A   Scattered Clouds
11:53 AM 64.4 °F 50.0 °F 59% 30.03 in 10.0 mi WNW 10.4 mph 17.3 mph N/A   Clear
12:13 PM 66.2 °F 50.0 °F 56% 30.03 in 10.0 mi NW 8.1 mph - N/A   Clear
12:33 PM 66.2 °F 50.0 °F 56% 30.03 in 10.0 mi NW 11.5 mph - N/A   Clear
12:53 PM 68.0 °F 50.0 °F 52% 30.03 in 10.0 mi NW 6.9 mph - N/A   Clear
1:12 PM 68.0 °F 50.0 °F 52% 30.02 in 10.0 mi WNW 8.1 mph - N/A   Scattered Clouds
1:33 PM 69.8 °F 50.0 °F 49% 30.03 in 10.0 mi NW 8.1 mph - N/A   Scattered Clouds
1:52 PM 69.8 °F 51.8 °F 53% 30.02 in 10.0 mi WNW 6.9 mph - N/A   Scattered Clouds
2:13 PM 71.6 °F 51.8 °F 50% 30.02 in 10.0 mi WNW 8.1 mph - N/A   Scattered Clouds
2:33 PM 71.6 °F 51.8 °F 50% 30.02 in 10.0 mi NNW 11.5 mph 17.3 mph N/A   Scattered Clouds
2:53 PM 71.6 °F 51.8 °F 50% 30.02 in 10.0 mi NNW 12.7 mph - N/A   Scattered Clouds
3:13 PM 71.6 °F 51.8 °F 50% 30.02 in 10.0 mi NW 5.8 mph - N/A   Scattered Clouds
3:32 PM 71.6 °F 51.8 °F 50% 30.02 in 10.0 mi North 8.1 mph 16.1 mph N/A   Scattered Clouds
3:53 PM 71.6 °F 51.8 °F 50% 30.02 in 10.0 mi North 9.2 mph - N/A   Scattered Clouds
4:13 PM 71.6 °F 50.0 °F 46% 30.02 in 10.0 mi North 8.1 mph - N/A   Scattered Clouds
4:32 PM 71.6 °F 51.8 °F 50% 30.01 in 7.0 mi North 6.9 mph - N/A   Clear
4:53 PM 73.4 °F 50.0 °F 44% 30.01 in 10.0 mi North 8.1 mph - N/A   Clear
5:13 PM 73.4 °F 48.2 °F 41% 30.01 in 10.0 mi NNW 4.6 mph - N/A   Scattered Clouds
5:33 PM 71.6 °F 51.8 °F 50% 30.02 in 10.0 mi NE 8.1 mph - N/A   Mostly Cloudy
5:53 PM 73.4 °F 51.8 °F 47% 30.02 in 10.0 mi NE 6.9 mph - N/A   Mostly Cloudy
6:12 PM 71.6 °F 51.8 °F 50% 30.02 in 10.0 mi NNE 6.9 mph - N/A   Scattered Clouds
6:33 PM 71.6 °F 51.8 °F 50% 30.02 in 10.0 mi North 5.8 mph - N/A   Scattered Clouds
6:52 PM 71.6 °F 51.8 °F 50% 30.03 in 10.0 mi NNE 4.6 mph - N/A   Clear
7:13 PM 69.8 °F 51.8 °F 53% 30.03 in 10.0 mi NNE 5.8 mph - N/A   Clear
7:33 PM 71.6 °F 51.8 °F 50% 30.03 in 10.0 mi NNE 3.5 mph - N/A   Clear
7:52 PM 69.8 °F 51.8 °F 53% 30.03 in 10.0 mi North 4.6 mph - N/A   Clear
8:13 PM 69.8 °F 51.8 °F 53% 30.04 in 10.0 mi Calm Calm - N/A   Clear
8:33 PM 66.2 °F 51.8 °F 60% 30.04 in 10.0 mi Calm Calm - N/A   Clear
8:52 PM 64.4 °F 53.6 °F 68% 30.04 in 10.0 mi Calm Calm - N/A   Scattered Clouds
9:13 PM 62.6 °F 53.6 °F 72% 30.05 in 10.0 mi Calm Calm - N/A   Clear
9:33 PM 62.6 °F 55.4 °F 77% 30.06 in 10.0 mi Calm Calm - N/A   Unknown
9:52 PM 62.6 °F 55.4 °F 77% 30.06 in 10.0 mi Calm Calm - N/A   Clear
10:13 PM 60.8 °F 55.4 °F 82% 30.07 in 10.0 mi Calm Calm - N/A   Scattered Clouds
10:33 PM 60.8 °F 55.4 °F 82% 30.08 in 10.0 mi Calm Calm - N/A   Clear
10:52 PM 59.0 °F 55.4 °F 88% 30.08 in 10.0 mi Calm Calm - N/A   Unknown
11:13 PM 57.2 °F 55.4 °F 94% 30.08 in 10.0 mi Calm Calm - N/A   Unknown
11:32 PM 57.2 °F 55.4 °F 94% 30.09 in 10.0 mi Calm Calm - N/A   Unknown
11:53 PM 55.4 °F 53.6 °F 94% 30.09 in 10.0 mi Calm Calm - N/A   Unknown